STARLINK-35033, 65468

Orbit data source: Space-Track

STARLINK-35033, 65468 is a payload satellite owned by SpaceX/Seattle (US) in LEO that was launched on Wed, 03 Sep 2025 UTC via an FALCON 9 launch vehicle from the Air Force Eastern Test Range (AFETR). Payload-class satellites include a variety of spacecraft equipped with specific instruments for various scientific and technological missions. These include communications satellites like Starlink; space stations such as the ISS; scientific satellites like the Hubble; Earth observation satellites from companies like Planet Labs, Umbra, and HawkEye 360; GPS; miniature CubeSats for education and research; and military/defense satellites.

Loading next visibility...
Identifier
65468, 2025-195L
Orbit
LEO
Country
Flag of USUS
Related business
Manufacturer
SpaceX/Seattle
Mission
Operational Commercial Communications
Bus & Motor
STARLINK V2MO, Unknown motor
Mass
575 kg wet, ~530 kg dry
Launch date (UTC)
2025-09-03 (10 months ago)
Launch vehicle
FALCON 9
Launch site
Air Force Eastern Test Range (AFETR)
Object type
Payload
Rocket body
Debris
Shape & HBR
Box + 2 Pan, 17.7 m
Radar Cross Section
36.964 m², Large (>1 m²)

Expand to show TLE details & history
Last TLE update: 12 hours ago

TLE from 12 hours ago
0 STARLINK-35033
1 65468U 25195L   26171.34941963  .00020801  00000-0  67961-3 0  9990
2 65468  53.1573 140.4658 0001600  94.7276 265.3908 15.31727449 45729
Epoch: 2026-06-20T08:23Z
TLE epoch observation values (Epoch: 2026-06-20T08:23:09.856Z)
Latitude
-0.00001°
Longitude
106.10941°
Altitude
471.646 km
Speed
7.631 km/s
True Right ascension
09h 21m 51s
True Declination
0° 00' 00"
Sunlit
Object was in daylight at epoch
Visualization orbit readout
Latitude
Unknown
Longitude
Unknown
Altitude
Unknown
Speed
Unknown
Apparent Right ascension
Unknown
Apparent Declination
Unknown
Sunlit
N/A
Visualization observer readout
Local Sidereal Time
07:22:49
Azimuth
Unknown
Elevation
Unknown
Doppler factor
Unknown
Orbital elements
Apogee altitude
472.011 km
Perigee altitude
469.819 km
Semi-major axis
6,849.052 km
Eccentricity
0.00016
Inclination
53.1573°
RAAN
140.4658°
Arg. of periapsis
94.7276°
True anomaly
265.37252°
Mean anomaly
265.3908°
Eccentric anomaly
265.38166°
Mean motion
3.82911 °/min
Orbital period
94.02 mins
BSTAR
0.00067961
Loading maneuver chart data...
Computing Atmospheric mass density...
Loading historical data...
Loading historical data...
Loading historical data...
Loading historical data...
Loading historical data...
Loading historical data...
Loading historical data...

Documentation

Showing up to 5 results
|